DW4212 La Cabrera ES current weather conditions

sailwx.info

Wind from 028

Air temperature 18.9° C
Dewpoint 11.9° C

Last reported at 2014-Sep-01 06:49 UTC.
Time now 2014-Sep-01 07:55 UTC

Location: N 40°53' W 003°35'.
View on Google Maps.

See reports from other nearby stations

  
Tides and Currents Weather Stations Pressure Air Temp Water Temp Dewpoint Dewpoint Depression Visibility Wind Speed Wind Dir Waves Ship Positions
date/time (UTC)wind fromknots sea level pressurealtimeterstation pressurevisibilityair tempwater tempwave heightnotes
2014-Sep-01 06:49 028 18.9
2014-Sep-01 06:39 028 18.3
2014-Sep-01 06:29 028 17.8
2014-Sep-01 06:19 028 17.2
2014-Sep-01 06:09 028 16.1
2014-Sep-01 05:59 028 16.1
2014-Sep-01 05:49 028 16.1
2014-Sep-01 05:39 028 16.1
2014-Sep-01 05:29 028 16.1
2014-Sep-01 05:19 028 16.1
2014-Sep-01 05:09 028 16.1
2014-Sep-01 04:59 028 16.1
2014-Sep-01 04:49 028 16.1
2014-Sep-01 04:39 028 16.1
2014-Sep-01 04:29 028 16.1
2014-Sep-01 04:19 028 16.7
2014-Sep-01 04:09 028 16.7
2014-Sep-01 03:49 028 17.2
2014-Sep-01 03:39 028 17.2
2014-Sep-01 03:29 028 17.2
2014-Sep-01 03:19 028 17.2
2014-Sep-01 03:09 028 17.2
2014-Sep-01 02:59 028 17.2
2014-Sep-01 02:49 028 17.2
2014-Sep-01 02:39 028 17.8
2014-Sep-01 02:29 028 17.8
2014-Sep-01 02:19 028 17.8
2014-Sep-01 02:09 028 18.3
2014-Sep-01 01:59 028 18.3
2014-Sep-01 01:49 028 18.3
2014-Sep-01 01:39 028 18.3
2014-Sep-01 01:29 028 18.9
2014-Sep-01 01:19 067 18.9
2014-Sep-01 01:09 067 18.9
2014-Sep-01 00:59 067 19.4
2014-Sep-01 00:49 067 18.9
2014-Sep-01 00:39 067 18.9
2014-Sep-01 00:29 067 18.9
2014-Sep-01 00:19 067 18.9
2014-Sep-01 00:09 067 18.9
2014-Aug-31 23:59 067 18.9
2014-Aug-31 23:49 067 18.9
2014-Aug-31 23:39 067 19.4
2014-Aug-31 23:29 067 20.0
2014-Aug-31 23:19 067 20.0
2014-Aug-31 23:09 067 20.0
2014-Aug-31 22:59 067 20.0
2014-Aug-31 22:49 067 20.6
2014-Aug-31 22:39 067 20.6
2014-Aug-31 22:29 067 21.1
2014-Aug-31 22:19 067 21.1
2014-Aug-31 22:09 068 21.7
2014-Aug-31 21:59 340 0 gusting 2 22.2
2014-Aug-31 21:49 340 0 gusting 3 22.8
2014-Aug-31 21:39 340 0 gusting 2 22.8
2014-Aug-31 21:29 340 22.8
2014-Aug-31 21:19 360 0 gusting 4 23.3
2014-Aug-31 21:09 360 0 gusting 3 23.3
2014-Aug-31 20:59 360 0 gusting 2 23.3
2014-Aug-31 20:49 360 1 gusting 5 23.9
2014-Aug-31 20:39 355 1 gusting 5 23.9
2014-Aug-31 20:29 005 2 gusting 7 23.3
2014-Aug-31 20:19 009 0 gusting 4 23.3
2014-Aug-31 20:09 009 23.9
2014-Aug-31 19:59 355 0 gusting 5 23.9
2014-Aug-31 19:49 005 1 gusting 6 23.9
2014-Aug-31 19:39 355 0 gusting 6 23.9
2014-Aug-31 19:29 360 1 gusting 5 23.9
2014-Aug-31 19:19 345 23.9
2014-Aug-31 19:09 058 24.4
2014-Aug-31 18:59 355 0 gusting 4 24.4
2014-Aug-31 18:49 252 25.0
2014-Aug-31 18:39 252 25.6
2014-Aug-31 18:29 252 26.1
2014-Aug-31 18:19 252 26.1
2014-Aug-31 18:09 252 26.7
2014-Aug-31 17:59 253 27.2
2014-Aug-31 17:49 254 27.2
2014-Aug-31 17:39 125 27.2
2014-Aug-31 17:29 125 27.2
2014-Aug-31 17:19 124 27.2
2014-Aug-31 17:09 124 26.7
2014-Aug-31 16:49 124 26.1
2014-Aug-31 16:39 124 26.1
2014-Aug-31 16:29 124 25.6
2014-Aug-31 16:19 124 25.0
2014-Aug-31 16:09 124 25.0
2014-Aug-31 15:59 124 24.4
2014-Aug-31 15:39 124 22.8
2014-Aug-31 15:29 124 21.1
2014-Aug-31 15:19 124 21.1
2014-Aug-31 15:09 124 20.0
2014-Aug-31 14:59 124 19.4
2014-Aug-31 14:49 124 18.9
2014-Aug-31 14:39 124 18.9
2014-Aug-31 14:29 124 18.3
2014-Aug-31 14:19 124 18.3
2014-Aug-31 14:09 126 17.8
2014-Aug-31 13:49 079 2 gusting 6 18.9
2014-Aug-31 13:19 215 0 gusting 7 30.0
2014-Aug-31 13:09 157 1 gusting 9 31.1
2014-Aug-31 12:59 132 3 gusting 7 31.1
2014-Aug-31 12:49 184 0 gusting 6 31.1
2014-Aug-31 12:39 169 2 gusting 5 30.0
2014-Aug-31 12:29 107 0 gusting 6 30.6
2014-Aug-31 12:19 192 2 gusting 6 30.0
2014-Aug-31 12:09 131 0 gusting 6 30.0
2014-Aug-31 11:49 192 2 gusting 6 29.4
2014-Aug-31 11:39 167 0 gusting 3 28.9
2014-Aug-31 11:29 103 0 gusting 4 28.9
2014-Aug-31 11:19 207 1 gusting 6 28.3
2014-Aug-31 11:09 169 1 gusting 5 28.3
2014-Aug-31 10:59 186 0 gusting 4 27.8
2014-Aug-31 10:49 180 28.3
2014-Aug-31 10:39 180 0 gusting 3 27.8
2014-Aug-31 10:29 177 27.2
2014-Aug-31 10:19 178 26.7
2014-Aug-31 10:09 174 26.7
2014-Aug-31 09:59 123 26.1
2014-Aug-31 09:49 200 26.7
2014-Aug-31 09:39 150 25.6
2014-Aug-31 09:29 136 25.6
2014-Aug-31 09:19 196 25.0
2014-Aug-31 09:09 107 24.4
2014-Aug-31 08:59 098 24.4
2014-Aug-31 08:49 098 23.9
2014-Aug-31 08:39 067 23.3
2014-Aug-31 08:29 067 23.3
2014-Aug-31 08:19 067 22.8
2014-Aug-31 08:09 067 22.2
2014-Aug-31 07:59 066 21.7
2014-Aug-31 07:49 355 21.1
2014-Aug-31 07:39 355 20.6
2014-Aug-31 07:19 355 20.0
2014-Aug-31 07:09 355 19.4
2014-Aug-31 06:59 355 18.9
2014-Aug-31 06:49 355 18.3
2014-Aug-31 06:29 355 17.2
2014-Aug-31 06:19 355 16.7
2014-Aug-31 06:09 355 16.7
2014-Aug-31 05:59 355 16.7
2014-Aug-31 05:49 355 16.7
2014-Aug-31 05:39 355 16.7
2014-Aug-31 05:29 355 16.7
2014-Aug-31 05:19 355 17.2
2014-Aug-31 05:09 355 17.2
2014-Aug-31 04:59 355 17.2
2014-Aug-31 04:49 355 17.2
2014-Aug-31 04:39 355 17.2
2014-Aug-31 04:29 355 17.8
2014-Aug-31 04:19 355 17.8
2014-Aug-31 04:09 355 17.8
2014-Aug-31 03:59 355 17.8
2014-Aug-31 03:49 355 18.3
2014-Aug-31 03:39 355 18.3
2014-Aug-31 03:29 355 18.3
2014-Aug-31 03:19 355 18.3
2014-Aug-31 03:09 355 18.3
2014-Aug-31 02:59 355 18.3
2014-Aug-31 02:49 355 18.9
2014-Aug-31 02:39 355 18.9
2014-Aug-31 02:29 355 18.9
2014-Aug-31 02:19 355 18.3
2014-Aug-31 02:09 355 18.3
2014-Aug-31 01:49 355 18.9
2014-Aug-31 01:40 355 18.9
2014-Aug-31 01:29 355 18.9
2014-Aug-31 01:19 355 284 gusting 284 18.9
2014-Aug-31 01:09 355 19.4
2014-Aug-31 00:59 355 19.4
2014-Aug-31 00:49 355 19.4
2014-Aug-31 00:39 355 19.4
2014-Aug-31 00:29 355 19.4
2014-Aug-31 00:09 355 19.4
2014-Aug-30 23:59 355 19.4
2014-Aug-30 23:49 355 19.4
2014-Aug-30 23:39 355 19.4
2014-Aug-30 23:29 355 19.4
2014-Aug-30 23:19 355 20.0
2014-Aug-30 23:09 355 20.0
2014-Aug-30 22:59 355 20.6
2014-Aug-30 22:49 355 21.7
2014-Aug-30 22:39 355 1 gusting 3 21.7
2014-Aug-30 22:29 355 0 gusting 3 21.7
2014-Aug-30 22:19 355 0 gusting 3 22.2
2014-Aug-30 22:09 355 22.2
2014-Aug-30 21:59 346 2 gusting 5 22.2
2014-Aug-30 21:49 360 0 gusting 4 22.2
2014-Aug-30 21:39 038 0 gusting 1 22.2
2014-Aug-30 21:29 038 0 gusting 2 22.2
2014-Aug-30 21:19 038 22.2
2014-Aug-30 21:09 038 22.2
2014-Aug-30 20:59 038 22.2
2014-Aug-30 20:49 038 22.2
2014-Aug-30 20:39 038 22.8
2014-Aug-30 20:29 070 22.8
2014-Aug-30 20:19 071 22.8
2014-Aug-30 20:09 071 23.3
2014-Aug-30 19:59 071 22.8
2014-Aug-30 19:49 107 0 gusting 2 22.8
2014-Aug-30 19:39 122 23.3
2014-Aug-30 19:29 122 0 gusting 3 23.9
2014-Aug-30 19:19 355 23.9
2014-Aug-30 19:09 355 24.4
2014-Aug-30 18:59 355 0 gusting 2 24.4
2014-Aug-30 18:49 355 24.4
2014-Aug-30 18:39 355 24.4
2014-Aug-30 18:29 355 0 gusting 3 24.4
2014-Aug-30 18:19 355 24.4
2014-Aug-30 18:09 355 24.4
2014-Aug-30 17:59 355 0 gusting 5 25.0
2014-Aug-30 17:49 355 0 gusting 3 25.0
2014-Aug-30 17:39 355 0 gusting 4 25.0
2014-Aug-30 17:29 355 25.6
2014-Aug-30 17:19 355 0 gusting 6 25.6
2014-Aug-30 17:09 348 2 gusting 5 26.1
2014-Aug-30 16:59 355 1 gusting 7 26.1
2014-Aug-30 16:49 355 0 gusting 6 26.1
2014-Aug-30 16:39 347 1 gusting 6 26.1
2014-Aug-30 16:29 065 26.1
2014-Aug-30 16:19 063 0 gusting 3 26.7
2014-Aug-30 16:09 063 1 gusting 4 26.7
2014-Aug-30 15:59 083 0 gusting 6 26.1
2014-Aug-30 15:49 065 1 gusting 6 26.1
2014-Aug-30 15:39 005 0 gusting 6 25.0
2014-Aug-30 13:59 212 28.3
2014-Aug-30 13:49 248 1 gusting 3 28.3
2014-Aug-30 13:39 194 0 gusting 4 28.3
2014-Aug-30 13:29 176 1 gusting 6 29.4
2014-Aug-30 13:19 195 1 gusting 4 29.4
2014-Aug-30 13:09 211 28.9
2014-Aug-30 12:59 170 2 gusting 6 28.9
2014-Aug-30 12:49 171 2 gusting 6 28.9
2014-Aug-30 12:39 187 28.9
2014-Aug-30 12:29 194 0 gusting 3 29.4
2014-Aug-30 12:19 158 1 gusting 6 28.9
2014-Aug-30 12:09 160 0 gusting 5 28.9
2014-Aug-30 11:59 200 29.4
2014-Aug-30 11:49 186 1 gusting 6 28.3
2014-Aug-30 11:39 184 0 gusting 4 27.8
2014-Aug-30 11:29 124 0 gusting 2 27.2
2014-Aug-30 11:19 185 0 gusting 4 27.2
2014-Aug-30 11:09 186 27.2
2014-Aug-30 10:59 198 27.2
2014-Aug-30 10:49 169 26.7
2014-Aug-30 10:39 159 26.1
2014-Aug-30 10:29 140 0 gusting 3 26.7
2014-Aug-30 10:19 179 0 gusting 3 27.2
2014-Aug-30 10:09 221 26.1
2014-Aug-30 09:59 192 26.1
2014-Aug-30 09:49 192 0 gusting 3 25.6
2014-Aug-30 09:39 192 0 gusting 3 26.1
2014-Aug-30 09:29 200 25.6
2014-Aug-30 09:19 200 0 gusting 2 25.0
2014-Aug-30 09:09 232 24.4
2014-Aug-30 08:59 234 0 gusting 3 23.9
2014-Aug-30 08:49 175 22.8
2014-Aug-30 08:39 096 22.2
2014-Aug-30 08:29 082 0 gusting 2 21.7
2014-Aug-30 08:19 360 20.6
2014-Aug-30 08:09 360 20.0
2014-Aug-30 07:59 360 20.0
2014-Aug-30 07:49 360 20.0
2014-Aug-30 07:39 360 20.0
2014-Aug-30 07:29 360 20.6
2014-Aug-30 07:19 360 20.0
2014-Aug-30 07:09 360 19.4